Moab, UT

5:27 AM MST on February 24, 2018 (GMT -0700)
Canyonlands

Weather History for KCNY - November, 2012

Change the Weather History Date:

Friday, November 9, 2012

  Actual Average Record
Temperature  
Mean Temperature 55 °F 42 °F  
Max Temperature 64 °F 54 °F 77 °F (1950)
Min Temperature 45 °F 30 °F 17 °F (1936)
Degree Days  
Heating Degree Days 10 23  
Month to date heating degree days 134 191  
Since 1 July heating degree days 481 610  
Cooling Degree Days 0 0  
Month to date cooling degree days 0 0  
Year to date cooling degree days 1513 1289  
Growing Degree Days 4 (Base 50)    
Moisture  
Dew Point 36 °F    
Average Humidity 41    
Maximum Humidity 55    
Minimum Humidity 27    
Precipitation  
Precipitation 0.03 in 0.02 in 0.51 in (1974)
Month to date precipitation 0.03 0.22  
Year to date precipitation 2.63 7.73  
Sea Level Pressure  
Sea Level Pressure 29.51 in    
Wind  
Wind Speed 18 mph (South)    
Max Wind Speed 35 mph    
Max Gust Speed 44 mph    
Visibility 10 miles    
Events Rain    
T = Trace of Precipitation, MM = Missing Value Source: NWS Daily Summary

Daily Weather History Graph

Daily Weather History Graph

Search for Another Location

Airport or City:

Trip Planner

Search our weather history database for the weather conditions in past years. The results will help you decide how hot, cold, wet, or windy it might be!

Date:

Astronomy

Nov. 09, 2012 Rise Set
Actual Time 6:55 AM MST 5:09 PM MST
Civil Twilight 6:27 AM MST 5:38 PM MST
Nautical Twilight 5:55 AM MST 6:09 PM MST
Astronomical Twilight 5:24 AM MST 6:41 PM MST
Moon 2:00 AM MST (11/9) 2:22 PM MST (11/9)
Length of Visible Light 11h 10m
Length of Day
10h 14m
Waning Crescent, 22% of the Moon is Illuminated
Nov 9
Waning Crescent
Nov 13
New
Nov 20
First Quarter
Nov 28
Full
Dec 6
Last Quarter

Hourly Weather History & Observations

Time (MST) Temp. Windchill Dew Point Humidity Pressure Visibility Wind Dir Wind Speed Gust Speed Precip Events Conditions
12:53 AM 61.0 °F - 32.0 °F 34% 29.59 in 10.0 mi South 21.9 mph 25.3 mph N/A   Scattered Clouds
1:53 AM 61.0 °F - 34.0 °F 36% 29.59 in 10.0 mi South 21.9 mph 27.6 mph N/A   Overcast
2:53 AM 59.0 °F - 36.0 °F 42% 29.60 in 10.0 mi South 15.0 mph - N/A   Mostly Cloudy
3:53 AM 57.0 °F - 36.0 °F 45% 29.59 in 10.0 mi South 13.8 mph 19.6 mph N/A   Overcast
4:53 AM 57.0 °F - 37.9 °F 49% 29.60 in 10.0 mi SSE 12.7 mph 20.7 mph N/A   Overcast
5:53 AM 55.9 °F - 39.0 °F 53% 29.60 in 10.0 mi SSE 9.2 mph - N/A   Overcast
6:53 AM 55.9 °F - 37.9 °F 51% 29.60 in 10.0 mi SSE 13.8 mph - N/A   Overcast
7:53 AM 57.0 °F - 37.9 °F 49% 29.59 in 10.0 mi SSE 19.6 mph - N/A   Overcast
8:53 AM 59.0 °F - 37.0 °F 44% 29.57 in 10.0 mi SSE 18.4 mph 27.6 mph N/A   Partly Cloudy
9:53 AM 59.0 °F - 37.0 °F 44% 29.58 in 10.0 mi SSE 16.1 mph - N/A   Overcast
10:53 AM 62.1 °F - 36.0 °F 38% 29.53 in 10.0 mi South 24.2 mph 32.2 mph N/A   Partly Cloudy
11:53 AM 63.0 °F - 36.0 °F 37% 29.50 in 10.0 mi South 21.9 mph 31.1 mph N/A   Scattered Clouds
12:53 PM 61.0 °F - 36.0 °F 39% 29.47 in 10.0 mi South 28.8 mph 36.8 mph N/A   Overcast
1:53 PM 61.0 °F - 39.0 °F 44% 29.43 in 10.0 mi South 18.4 mph 24.2 mph 0.00 in   Partly Cloudy
2:53 PM 60.1 °F - 37.0 °F 42% 29.41 in 9.0 mi SSW 21.9 mph 40.3 mph 0.00 in Rain Light Rain
3:53 PM 59.0 °F - 42.1 °F 53% 29.41 in 10.0 mi South 20.7 mph 27.6 mph 0.01 in   Partly Cloudy
4:53 PM 59.0 °F - 37.0 °F 44% 29.39 in 10.0 mi SSW 20.7 mph 25.3 mph N/A   Clear
5:53 PM 57.9 °F - 34.0 °F 41% 29.40 in 10.0 mi SSW 11.5 mph - N/A   Clear
6:53 PM 57.0 °F - 30.0 °F 36% 29.42 in 10.0 mi SSW 13.8 mph 21.9 mph N/A   Partly Cloudy
7:53 PM 57.0 °F - 27.0 °F 32% 29.43 in 10.0 mi SSW 23.0 mph 32.2 mph N/A   Clear
8:53 PM 54.0 °F - 27.0 °F 35% 29.43 in 10.0 mi SW 13.8 mph - N/A   Scattered Clouds
9:53 PM 52.0 °F - 34.0 °F 50% 29.46 in 10.0 mi SSW 23.0 mph 31.1 mph 0.00 in Rain Light Rain
10:53 PM 46.9 °F - 39.0 °F 74% 29.47 in 10.0 mi SW 15.0 mph - 0.01 in   Overcast
11:53 PM 45.0 °F 37.9 °F 34.0 °F 65% 29.50 in 10.0 mi West 16.1 mph - 0.01 in Rain Light Rain